STARLINK-11233 [DTC]

Last updated on Fri Oct 04 2024 00:02:04 GMT+0000 (Coordinated Universal Time)

1 61061U 24164M 24277.58334491 .00103630 00000+0 63138-3 0 9996 2 61061 53.1624 5.3267 0001805 95.0429 235.0071 15.76659536 4468
UTC large
Height (km)
Speed (km/s)
/
Latitude / Longitude
Inclination (degrees)
Orbital Period (minutes)
Azimuth
Elevation
Range (km)
Doppler Factor

Next 0 passes for location: London (51.5072 / 0.1276)

Sorry there are no passes over London.